TimeEST,TemperatureF,Dew PointF,Humidity,Sea Level PressureIn,VisibilityMPH,Wind Direction,Wind SpeedMPH,Gust SpeedMPH,PrecipitationIn,Events,Conditions,WindDirDegrees,DateUTC
12:53 AM,62.1,55.0,78,29.98,10.0,SSW,10.4,-,N/A,,Clear,210,2013-01-02 05:53:00
1:53 AM,57.9,54.0,87,29.98,10.0,SW,5.8,-,N/A,,Clear,220,2013-01-02 06:53:00
2:53 AM,57.0,54.0,89,29.99,10.0,SW,3.5,-,N/A,,Partly Cloudy,230,2013-01-02 07:53:00
3:53 AM,57.9,55.0,90,29.99,10.0,SW,6.9,-,N/A,,Clear,230,2013-01-02 08:53:00
4:53 AM,60.1,55.0,83,29.98,10.0,SSW,9.2,-,N/A,,Mostly Cloudy,210,2013-01-02 09:53:00
5:53 AM,61.0,55.9,83,29.98,10.0,SW,12.7,17.3,N/A,,Overcast,220,2013-01-02 10:53:00
6:53 AM,60.1,55.9,86,29.99,10.0,SW,9.2,-,N/A,,Overcast,230,2013-01-02 11:53:00
7:53 AM,60.1,55.9,86,29.99,10.0,SSW,8.1,-,N/A,,Clear,210,2013-01-02 12:53:00
8:53 AM,62.1,57.0,84,30.01,10.0,SW,9.2,-,N/A,,Overcast,220,2013-01-02 13:53:00
9:53 AM,64.4,57.2,77,30.02,10.0,SW,4.6,-,N/A,,Overcast,220,2013-01-02 14:53:00
10:53 AM,66.0,60.1,81,30.03,10.0,West,5.8,-,N/A,,Overcast,260,2013-01-02 15:53:00
11:05 AM,64.4,60.8,88,30.02,10.0,WSW,4.6,-,N/A,,Overcast,250,2013-01-02 16:05:00
11:50 AM,64.4,62.6,94,30.02,1.8,West,5.8,-,0.00,Rain,Light Rain,280,2013-01-02 16:50:00
11:53 AM,64.9,62.1,90,30.02,1.8,West,8.1,-,0.00,Rain,Light Rain,280,2013-01-02 16:53:00
12:08 PM,64.4,62.6,94,30.02,2.5,WNW,5.8,-,0.01,Rain,Light Rain,300,2013-01-02 17:08:00
12:17 PM,64.4,62.6,94,30.01,5.0,Variable,4.6,-,0.01,,Overcast,0,2013-01-02 17:17:00
12:24 PM,64.4,62.6,94,30.01,9.0,WNW,4.6,-,0.01,,Overcast,290,2013-01-02 17:24:00
12:33 PM,64.4,62.6,94,30.01,10.0,West,5.8,-,0.01,,Overcast,280,2013-01-02 17:33:00
12:53 PM,64.9,63.0,93,30.00,9.0,WNW,5.8,-,0.01,,Mostly Cloudy,290,2013-01-02 17:53:00
1:43 PM,64.4,60.8,88,30.00,10.0,NW,5.8,-,N/A,,Overcast,310,2013-01-02 18:43:00
1:53 PM,64.0,61.0,90,30.00,10.0,WNW,4.6,-,N/A,,Overcast,300,2013-01-02 18:53:00
2:36 PM,62.6,60.8,94,30.00,3.0,NNW,3.5,-,0.00,Rain,Light Rain,340,2013-01-02 19:36:00
2:42 PM,62.6,60.8,94,30.00,2.5,Calm,Calm,-,0.00,Rain,Light Rain,0,2013-01-02 19:42:00
2:53 PM,63.0,61.0,93,30.00,2.5,NNW,3.5,-,0.00,Rain,Light Rain,340,2013-01-02 19:53:00
3:02 PM,62.6,60.8,94,30.00,2.5,NNW,3.5,-,0.00,Rain,Light Rain,330,2013-01-02 20:02:00
3:09 PM,62.6,60.8,94,30.00,3.0,North,4.6,-,0.00,Rain,Light Rain,350,2013-01-02 20:09:00
3:41 PM,62.6,60.8,94,30.01,10.0,Calm,Calm,-,0.00,,Overcast,0,2013-01-02 20:41:00
3:53 PM,63.0,61.0,93,30.02,10.0,North,3.5,-,0.00,,Overcast,10,2013-01-02 20:53:00
4:04 PM,62.6,60.8,94,30.02,6.0,Calm,Calm,-,0.00,Rain,Light Rain,0,2013-01-02 21:04:00
4:16 PM,62.6,60.8,94,30.03,1.8,North,3.5,-,0.00,Rain,Light Rain,360,2013-01-02 21:16:00
4:43 PM,62.6,60.8,94,30.03,2.0,Calm,Calm,-,N/A,Rain,Light Rain,0,2013-01-02 21:43:00
4:53 PM,62.1,60.1,93,30.03,6.0,North,3.5,-,0.01,,Overcast,10,2013-01-02 21:53:00
5:25 PM,60.8,60.8,100,30.04,10.0,Calm,Calm,-,N/A,,Overcast,0,2013-01-02 22:25:00
5:36 PM,60.8,57.2,88,30.04,8.0,East,4.6,-,N/A,,Overcast,80,2013-01-02 22:36:00
5:53 PM,59.0,57.9,96,30.04,8.0,East,3.5,-,N/A,,Overcast,100,2013-01-02 22:53:00
6:29 PM,57.2,57.2,100,30.06,10.0,Calm,Calm,-,N/A,,Overcast,0,2013-01-02 23:29:00
6:45 PM,59.0,57.2,94,30.06,10.0,ENE,4.6,-,0.00,Rain,Light Rain,70,2013-01-02 23:45:00
6:53 PM,57.9,57.0,97,30.06,10.0,East,4.6,-,0.00,,Overcast,90,2013-01-02 23:53:00
7:28 PM,59.0,57.2,94,30.07,10.0,Calm,Calm,-,N/A,,Overcast,0,2013-01-03 00:28:00
7:53 PM,59.0,57.9,96,30.07,10.0,ENE,4.6,-,N/A,,Overcast,60,2013-01-03 00:53:00
8:53 PM,57.9,55.9,93,30.08,10.0,ENE,6.9,-,N/A,,Overcast,60,2013-01-03 01:53:00
9:53 PM,57.0,55.9,96,30.09,10.0,ENE,8.1,-,N/A,,Overcast,70,2013-01-03 02:53:00
10:50 PM,57.2,55.4,94,30.10,10.0,NE,6.9,-,N/A,,Overcast,40,2013-01-03 03:50:00
10:53 PM,57.0,55.0,93,30.10,10.0,NNE,5.8,-,N/A,,Overcast,30,2013-01-03 03:53:00
11:18 PM,57.2,55.4,94,30.10,10.0,NNE,4.6,-,N/A,,Overcast,20,2013-01-03 04:18:00
11:32 PM,57.2,55.4,94,30.11,10.0,North,8.1,-,N/A,,Overcast,10,2013-01-03 04:32:00
11:53 PM,57.0,55.0,93,30.11,10.0,NNE,6.9,-,N/A,,Overcast,20,2013-01-03 04:53:00